sat.trackr.live / text

‹ back to catalog

GHOST-5

NORAD 59130 · 2024-043AJ

PAYLOAD ACTIVE UNKNOWN

§ Identity

Operator
Country
US
Launch date
2024-03-04
Launch site
AFWTR
Launch vehicle
Mass (kg)
RCS (m²)

External: N2YO · Heavens-Above · Gunter

§ Orbital elements

Epoch: 2026-05-25T03:29:18.207168Z

Period
93.37 min
Inclination
97.5561°
Eccentricity
0.0006447
Mean motion
15.42245619 rev/d
Perigee alt
435.1 km
Apogee alt
443.9 km
Semi-major
6,817.6 km
B*
3.0005e-4
RAAN
288.7839°
Arg perigee
301.8587°
Mean anomaly
58.2031°
Rev number
12,396

§ Raw data

GHOST-51 59130U 24043AJ  26145.14534962  .00012818  00000+0  30005-3 0  99932 59130  97.5561 288.7839 0006447 301.8587  58.2031 15.42245619123960

JSON: /api/v1/satellites/59130 · /tle

For live sub-satellite position, see the globe view (requires WebGL).

§ Visibility from observer

Set your observer location to see the next 7 days of passes ≥ 10°. The values pass through the URL so the page stays shareable.

No JS? Fill the form by hand. The geolocation button needs JavaScript.

§ Radio — SatNOGS DB

ModeDescriptionDownlinkUplink
FSK Telemetry 400.503 MHz

1 transmitter · refreshed weekly from db.satnogs.org